FW3304 Weather Reports


Display with metric or nautical units.
time (UTC)temp
F
wind
direction
speed
MPH
gust
MPH
rain 1hr
in
rain 24hr
in
rain mn
in
humidity
%
barometer
mb
20260905130043 77 146 0.0 0.0 0.00 0.00 0.00 98 1013.2
20260905130017 77 147 0.0 1.0 0.00 0.00 0.00 98 1016.0
20260905124540 76 146 0.0 1.0 0.00 0.00 0.00 100 1013.2
20260905123038 74 141 0.0 0.0 0.00 0.00 0.00 99 1013.1
20260905123017 74 0.0 0.0 0.00 0.00 0.00 99 1015.8
20260905121536 74 141 0.0 0.0 0.00 0.00 0.00 99 1013.0
20260905120037 73 0.0 0.0 0.00 0.00 0.00 99 1015.5
20260905120033 73 141 0.0 0.0 0.00 0.00 0.00 99 1012.9
20260905114531 73 141 0.0 0.0 0.00 0.00 0.00 98 1012.7
20260905113028 74 141 0.0 0.0 0.00 0.00 0.00 99 1012.6
20260905113021 74 0.0 0.0 0.00 0.00 0.00 99 1015.2
20260905111531 73 141 0.0 0.0 0.00 0.00 0.00 99 1012.6
20260905110026 73 141 0.0 0.0 0.00 0.00 0.00 98 1012.5
20260905110016 73 0.0 0.0 0.00 0.00 0.00 98 1015.1
20260905104525 73 141 0.0 0.0 0.00 0.00 0.00 98 1012.4
20260905103032 74 141 0.0 0.0 0.00 0.00 0.00 98 1012.5
20260905103016 74 0.0 0.0 0.00 0.00 0.00 98 1015.2
20260905101522 74 141 0.0 0.0 0.00 0.00 0.00 98 1012.4
20260905100021 73 141 0.0 0.0 0.00 0.00 0.00 98 1012.2
20260905100016 73 0.0 0.0 0.00 0.00 0.00 98 1015.0
20260905094519 74 141 0.0 0.0 0.00 0.00 0.00 98 1012.2
20260905093018 74 141 0.0 0.0 0.00 0.00 0.00 98 1012.1
20260905091517 74 141 0.0 0.0 0.00 0.00 0.00 98 1012.1
20260905090016 74 0.0 0.0 0.00 0.00 0.00 98 1014.9
20260905090014 74 141 0.0 0.0 0.00 0.00 0.00 98 1012.1
20260905084513 74 141 0.0 0.0 0.00 0.00 0.00 98 1012.1
20260905083017 74 0.0 0.0 0.00 0.00 0.00 97 1014.9
20260905083013 74 141 0.0 0.0 0.00 0.00 0.00 97 1012.1
20260905081512 74 141 0.0 0.0 0.00 0.00 0.00 98 1012.2
20260905080021 75 0.0 0.0 0.00 0.00 0.00 97 1014.9
20260905080017 75 141 0.0 0.0 0.00 0.00 0.00 97 1012.2
20260905074508 75 141 0.0 0.0 0.00 0.00 0.00 97 1012.2
20260905073016 75 0.0 0.0 0.00 0.00 0.00 97 1014.9
20260905073007 75 141 0.0 0.0 0.00 0.00 0.00 97 1012.2
20260905071506 75 141 0.0 0.0 0.00 0.00 0.00 97 1012.2
20260905070016 75 0.0 0.0 0.00 0.00 0.00 97 1014.9
20260905070005 75 141 0.0 0.0 0.00 0.00 0.00 97 1012.1
20260905064504 76 141 0.0 0.0 0.00 0.00 0.00 96 1012.3
20260905063036 76 0.0 3.0 0.00 0.00 0.00 96 1015.2
20260905063002 76 141 0.0 0.0 0.00 0.00 0.00 96 1012.3
20260905061613 77 141 0.0 0.0 0.00 0.00 0.00 96 1012.3
20260905060100 77 141 0.0 0.0 0.00 0.00 0.00 96 1012.4
20260905060016 77 143 0.0 3.0 0.00 0.00 0.00 96 1015.4
20260905054556 77 141 0.0 0.0 0.00 0.00 0.00 96 1012.4
20260905053055 77 141 0.0 1.0 0.00 0.00 0.00 95 1012.4
20260905053016 77 142 0.0 2.0 0.00 0.00 0.00 95 1015.2
20260905051600 77 141 0.0 1.0 0.00 0.00 0.00 95 1012.5
20260905050051 77 141 0.0 1.0 0.00 0.00 0.00 96 1012.5
20260905050017 77 0.0 7.0 0.00 0.00 0.00 96 1015.4
20260905044549 77 141 0.0 0.0 0.00 0.00 0.00 95 1012.5
20260905043057 77 141 0.0 1.0 0.00 0.00 0.00 96 1012.7
20260905043021 77 133 0.0 7.0 0.00 0.00 0.00 96 1015.7
20260905041549 77 141 2.0 6.0 0.00 0.00 0.00 95 1012.7
20260905040056 77 71 0.0 0.0 0.00 0.00 0.00 95 1012.7
20260905040016 78 76 0.0 2.0 0.00 0.00 0.00 95 1015.5
20260905034548 78 71 0.0 1.0 0.00 0.00 0.00 95 1012.9
20260905033051 78 71 0.0 0.0 0.00 0.00 0.00 94 1012.9
20260905031551 78 71 0.0 0.0 0.00 0.00 0.00 94 1013.0
20260905030055 79 71 0.0 0.0 0.00 0.00 0.00 94 1013.0
20260905030016 79 0.0 2.0 0.00 0.00 0.00 94 1015.8
20260905024546 79 71 0.0 0.0 0.00 0.00 0.00 94 1012.9
20260905023046 80 71 0.0 2.0 0.00 0.00 0.00 93 1012.7
20260905023016 80 76 0.0 2.0 0.00 0.00 0.00 93 1015.7
20260905021545 80 71 0.0 1.0 0.00 0.00 0.00 92 1012.8
20260905020049 81 71 0.0 1.0 0.00 0.00 0.00 92 1012.7
20260905020016 81 76 0.0 1.0 0.00 0.00 0.00 92 1015.5
20260905014543 81 71 0.0 0.0 0.00 0.00 0.00 91 1012.7
20260905013049 82 71 0.0 0.0 0.00 0.00 0.00 90 1012.6
20260905013015 82 0.0 0.0 0.00 0.00 0.00 90 1015.3
20260905011622 82 71 0.0 0.0 0.00 0.00 0.00 89 1012.4
20260905010041 83 71 0.0 0.0 0.00 0.00 0.00 88 1012.3
20260905004542 84 71 0.0 0.0 0.00 0.00 0.00 87 1012.1
20260905003041 85 71 0.0 0.0 0.00 0.00 0.00 85 1011.9
20260905003016 86 0.0 1.0 0.00 0.00 0.00 85 1014.4
20260905001551 88 71 0.0 0.0 0.00 0.00 0.00 82 1011.9
20260905000043 90 71 0.0 0.0 0.00 0.00 0.00 78 1011.8
20260905000015 90 76 0.0 3.0 0.00 0.00 0.00 78 1014.6
20260904234539 92 71 0.0 0.0 0.00 0.00 0.00 75 1011.9
20260904233038 94 71 0.0 1.0 0.00 0.00 0.00 71 1011.9
20260904233015 94 75 0.0 5.0 0.00 0.00 0.00 71 1014.9
20260904231532 93 71 0.0 3.0 0.00 0.00 0.00 68 1011.9
20260904230035 93 76 2.0 5.0 0.00 0.00 0.00 66 1014.7
20260904230031 93 71 2.0 4.0 0.00 0.00 0.00 66 1011.8
20260904224530 94 71 2.0 4.0 0.00 0.00 0.00 66 1011.9
20260904223029 94 72 2.0 5.0 0.00 0.00 0.00 62 1011.9
20260904223015 94 76 2.0 7.0 0.00 0.00 0.00 62 1014.8
20260904221529 94 71 2.0 5.0 0.00 0.00 0.00 62 1011.9
20260904220029 95 72 3.0 6.0 0.00 0.00 0.00 59 1011.9
20260904220015 95 61 2.0 7.0 0.00 0.00 0.00 59 1014.8
20260904214528 96 63 2.0 4.0 0.00 0.00 0.00 58 1011.9
20260904213027 97 321 1.0 3.0 0.00 0.00 0.00 55 1011.9
20260904213020 97 323 1.0 6.0 0.00 0.00 0.00 55 1014.7
20260904211523 97 321 1.0 4.0 0.00 0.00 0.00 54 1012.2
20260904210035 96 334 2.0 10.0 0.00 0.00 0.00 59 1015.3
20260904210026 96 340 1.0 4.0 0.00 0.00 0.00 59 1012.4
20260904204517 94 340 2.0 6.0 0.00 0.00 0.00 60 1012.7
20260904203021 92 333 3.0 6.0 0.00 0.00 0.00 63 1012.9
20260904203015 92 299 4.0 13.0 0.00 0.00 0.00 63 1015.7
20260904201513 90 309 3.0 8.0 0.00 0.00 0.00 65 1013.0
20260904200015 92 323 4.0 16.0 0.00 0.00 0.00 65 1016.1
20260904194512 91 8 3.0 8.0 0.00 0.00 0.00 65 1013.6
20260904193016 88 340 7.0 27.0 0.00 0.00 0.00 71 1016.4
20260904193012 88 340 2.0 10.0 0.00 0.00 0.00 71 1013.7
20260904191511 86 342 8.0 15.0 0.00 0.00 0.00 68 1014.1
20260904190035 86 21 10.0 27.0 0.00 0.00 0.00 65 1016.7
20260904190010 86 321 10.0 19.0 0.00 0.00 0.00 65 1014.2
20260904184509 86 20 7.0 18.0 0.00 0.00 0.00 70 1014.3
20260904183015 94 292 2.0 9.0 0.00 0.00 0.00 63 1017.2
20260904183010 94 48 5.0 6.0 0.00 0.00 0.00 63 1014.4
20260904181528 95 296 2.0 6.0 0.00 0.00 0.00 61 1014.4
20260904180020 95 168 4.0 10.0 0.00 0.00 0.00 60 1017.1
20260904180009 95 166 2.0 8.0 0.00 0.00 0.00 60 1014.4
20260904174506 95 193 3.0 8.0 0.00 0.00 0.00 61 1014.5
20260904173015 95 170 4.0 10.0 0.00 0.00 0.00 63 1017.2
20260904173003 95 148 6.0 9.0 0.00 0.00 0.00 63 1014.5
20260904171619 95 188 4.0 7.0 0.00 0.00 0.00 62 1014.7
20260904170056 95 157 4.0 7.0 0.00 0.00 0.00 63 1014.8
20260904170016 95 145 3.0 8.0 0.00 0.00 0.00 64 1017.4
20260904164553 94 134 2.0 6.0 0.00 0.00 0.00 65 1014.9
20260904163049 93 180 2.0 6.0 0.00 0.00 0.00 65 1015.1
20260904163015 93 186 2.0 8.0 0.00 0.00 0.00 65 1017.8
20260904161545 93 195 2.0 6.0 0.00 0.00 0.00 66 1015.1
20260904160042 93 205 1.0 6.0 0.00 0.00 0.00 68 1015.0
20260904160015 93 201 2.0 6.0 0.00 0.00 0.00 68 1018.0
20260904154545 92 203 3.0 6.0 0.00 0.00 0.00 66 1015.2
20260904153033 91 210 2.0 4.0 0.00 0.00 0.00 69 1015.2
20260904153017 91 207 1.0 4.0 0.00 0.00 0.00 69 1018.2
20260904151534 90 209 1.0 4.0 0.00 0.00 0.00 72 1015.1
20260904150037 90 200 1.0 4.0 0.00 0.00 0.00 76 1018.0
20260904150027 90 202 2.0 3.0 0.00 0.00 0.00 76 1015.2
20260904144523 88 202 1.0 4.0 0.00 0.00 0.00 78 1015.0
20260904143029 86 200 2.0 4.0 0.00 0.00 0.00 78 1015.0
20260904143021 86 199 1.0 5.0 0.00 0.00 0.00 78 1017.9
20260904141514 85 200 2.0 4.0 0.00 0.00 0.00 84 1014.9
20260904140030 84 200 1.0 4.0 0.00 0.00 0.00 86 1015.0
20260904140017 84 176 1.0 5.0 0.00 0.00 0.00 86 1017.8
20260904134507 82 163 0.0 3.0 0.00 0.00 0.00 90 1015.0
20260904133017 81 146 0.0 2.0 0.00 0.00 0.00 93 1017.6
20260904133003 81 146 0.0 0.0 0.00 0.00 0.00 93 1014.9
20260904131608 80 145 0.0 2.0 0.00 0.00 0.00 97 1014.9